www.pogodaiklimat.ru

Погода и климат >> Архив погоды >> Казахстан >> Амангельды


ПОГОДА в Амангельды

  • Прогноз погоды в Амангельды
  • Монитор погоды в Амангельды

АРХИВ ПОГОДЫ в Амангельды

Время (UTC), дата Ветер
(напр.,м/с)
 
Видим.   Явления Облачность Т
(С)
Тd
(С)
f
(%)
Тe
(С)
Тes
(С)
Комфортность P
(гПа)
Po
(гПа)
Тmin
(С)
Tmax
(С)
R
(мм)
R24
(мм)
S
(см)
18 10.07 СВ 2 н/о 4/0
[Ac lent]
+21.9 +7.7 40 +23 +23 комфорт 1008.4 992.1 +32.8
21 10.07 СВ 2 н/о 4/0
[Ci fib]
+18.6 +8.8 53 +20 +20 1008.5 992.0
00 11.07 СВ 2 10 км 5/0
[Ci fib]
+16.8 +8.5 58 +17 +17 1007.7 991.1
03 11.07 СВ 2 20 км 3/0
[Ci fib]
+24.5 +8.0 35 +25 +30 комфорт 1007.4 991.3
06 11.07 СВ 2 20 км 10/10 600 м
[Cb cap]
+31.0 +3.8 18 +29 +29 жарко 1007.4 991.6 +16.7
09 11.07 З 2 20 км 10/10 600 м
[Cb cap]
+34.5 +3.1 14 +32 +32 жарко 1007.7 992.0
12 11.07 З 2 20 км 8/0
[Ac trans]
+35.0 +2.9 13 +32 +35 жарко 1006.1 990.5
15 11.07 СЗ 2 10 км 8/0
[Ac lent]
+34.2 +4.8 16 +32 +32 жарко 1006.4 990.7 +35.6
18 11.07 СВ 1 н/о 5/0
[Ac lent]
+23.5 +7.3 35 +24 +24 комфорт 1007.3 991.1 +35.6
21 11.07 СВ 4 н/о 8/0
[Ac cast]
+21.3 +8.9 45 +23 +23 комфорт 1008.4 992.0
00 12.07 СВ 3 10 км 6/0
[Ac lent]
+18.9 +9.3 54 +20 +20 1007.9 991.5
03 12.07 СВ 2 20 км 4/0
[Ci fib]
+25.8 +11.0 39 +27 +32 жарко 1008.2 992.2
06 12.07 СВ 2 20 км ясно +35.8 +2.9 13 +33 +48 жарко 1007.8 992.1 +18.8
09 12.07 СВ 2 20 км 6 баллов +38.0 +4.8 13 +35 +41 очень
жарко
1007.5 992.0
12 12.07 С 2 20 км 8/0
[Ac lent]
+37.5 +7.0 16 +35 +38 очень
жарко
1006.5 991.0
15 12.07 С 3 10 км 4 балла +36.5 +9.1 19 +35 +35 очень
жарко
1007.6 992.0 +38.6
18 12.07 З 2 н/о ясно +28.4 +6.5 25 +27 +27 жарко 1007.5 991.5 +38.6
21 12.07 С 1 н/о ясно +21.6 +6.7 38 +22 +22 комфорт 1009.7 993.3
00 13.07 С 4 10 км ясно +19.1 +8.1 49 +20 +20 1009.2 992.7
03 13.07 С 4 20 км ясно +23.8 +11.1 45 +25 +29 комфорт 1009.2 992.9
06 13.07 С 4 20 км ясно +34.0 +11.5 25 +34 +44 очень
жарко
1008.0 992.4 +19.0
09 13.07 СВ 4 20 км ясно +35.2 +8.6 20 +34 +44 очень
жарко
1006.8 991.2
12 13.07 СВ 2 20 км ясно +36.0 +8.1 18 +34 +40 очень
жарко
1006.1 990.5
15 13.07 С 3 10 км ясно +33.0 +5.8 18 +31 +31 жарко 1006.3 990.6 +36.8
18 13.07 С 4 н/о ясно +23.0 +7.3 36 +24 +24 комфорт 1007.4 991.2 +36.8
21 13.07 С 5 н/о ясно +20.0 +7.7 45 +21 +21 комфорт 1008.5 992.0
00 14.07 С 4 50 км ясно +17.4 +8.6 56 +17 +17 1007.4 990.9
03 14.07 С 3 20 км ясно +24.1 +11.3 45 +26 +30 жарко 1007.7 991.5 +17.3
06 14.07 С 2 20 км ясно +33.7 +8.8 22 +32 +47 жарко 1006.9 991.2 +17.3
09 14.07 С 1 20 км ясно +35.2 +3.7 14 +32 +51 опасность
солнечного
удара
1006.3 990.7 +17.3
12 14.07 С 1 20 км ясно +36.3 +2.9 12 +33 +40 жарко 1005.0 989.4
15 14.07 СВ 2 10 км 7 баллов +33.2 +3.1 15 +30 +30 жарко 1006.4 990.7 +37.0
18 14.07 СВ 2 н/о 6/0
[Ac lent]
+24.3 +8.5 37 +25 +25 комфорт 1005.7 989.5 +37.0
21 14.07 СВ 2 н/о 6/0
[Ac lent]
+22.0 +10.2 47 +24 +24 комфорт 1007.0 990.7
00 15.07 СВ 2 10 км 5/0
[Ci fib]
+20.7 +7.0 41 +22 +22 комфорт 1004.8 988.5
03 15.07 СВ 2 20 км 4/0
[Ci fib]
+27.4 +6.8 27 +27 +32 жарко 1004.2 988.2
06 15.07 СВ 2 20 км 4/0
[Ci fib]
+36.1 +9.8 20 +35 +49 очень
жарко
1003.1 987.6 +20.6
09 15.07 СВ 1 20 км ясно +39.1 +6.7 14 +37 +55 опасность
солнечного
удара
1002.1 986.7
12 15.07 Ю 1 20 км ясно +40.2 +8.9 15 +38 +46 очень
жарко
1000.1 984.8
15 15.07 В 4 10 км ясно +36.3 +6.4 16 +34 +34 очень
жарко
999.5 984.0 +40.8
18 15.07 ЮЗ 5 н/о ясно +30.8 +9.5 27 +30 +30 жарко 1000.3 984.6 +40.8
21 15.07 Ю 8 н/о ясно +26.0 +10.6 38 +27 +27 жарко 1002.7 986.7
00 16.07 С 8 10 км ясно +20.8 +10.3 51 +22 +22 комфорт 1004.3 988.0
03 16.07 С 8 20 км ясно +21.0 +9.9 49 +22 +23 комфорт 1006.2 989.9
06 16.07 С 8 20 км ясно +25.1 +9.2 36 +26 +28 жарко 1006.6 990.5 +20.7
09 16.07 С 8 20 км ясно +29.8 +6.4 23 +29 +31 жарко 1007.9 992.0
12 16.07 С 5 20 км ясно +32.4 +5.0 18 +30 +33 жарко 1006.0 990.2
15 16.07 СЗ 4 10 км ясно +30.0 +4.6 20 +28 +28 жарко 1007.9 992.0 +33.1
18 16.07 С 2 н/о ясно +21.4 +6.3 37 +22 +22 комфорт 1008.2 991.9 +33.1
21 16.07 С 5 н/о ясно +20.7 +8.0 44 +22 +22 комфорт 1009.7 993.3
00 17.07 С 6 10 км ясно +19.0 +10.3 57 +19 +19 1010.9 994.4
03 17.07 С 8 20 км ясно +23.0 +10.5 45 +25 +26 комфорт 1011.9 995.6
06 17.07 С 6 20 км ясно +26.8 +9.2 33 +27 +33 жарко 1011.7 995.5 +18.9
12 17.07 С 3 20 км ясно +32.2 +5.0 18 +30 +35 жарко 1009.4 993.5
15 17.07 СВ 2 10 км ясно +30.4 +4.9 20 +29 +29 жарко 1010.7 994.7 +33.0

 

Местоположение метеостанции Амангельды (Костанайская область, Казахстан): широта 50.13 долгота 65.23 высота над уровнем моря 142 м.

В архиве по умолчанию представлена погода в Амангельды за последнюю неделю. Архивные данные за месяц целиком и за предыдущие месяцы, начиная с января 2011 года, Вы можете получить, выбрав интересующий диапазон дат из раскрывающегося списка и нажав кнопку "Ввод!".


*Определитесь, кто Вы:
робот инопланетянин человек

Внимание! Время в таблицах - всемирное. Для получения местного времени необходимо прибавить поправку, которая равна 5 ч.

Смотрите также архив погоды в соседних городах и на ближайших метеорологических станциях:

Погода в Экидыне (Костанайская область, Казахстан) (78 км)
Погода в Аркалыке (Костанайская область, Казахстан) (114 км)
Погода в Тасты-Талды (Акмолинская область, Казахстан) (119 км)
Погода в Державинске (Акмолинская область, Казахстан) (133 км)
Погода в Тургае (Костанайская область, Казахстан) (136 км)
Погода в Караменды (Костанайская область, Казахстан) (161 км)
Погода в Аралколе (Актюбинская область, Казахстан) (207 км)
Погода в Улытау (Карагандинская область, Казахстан) (208 км)
Погода в Есиле (Акмолинская область, Казахстан) (209 км)
Погода в Железнодорожной (Костанайская область, Казахстан) (221 км)

Пояснения к столбцам:

Ветер - указаны скорость ветра в м/с - средняя за 10 мин, порывы в срок и между сроками (в фигурных скобках) и направление, откуда дует ветер: С - северный, СВ - северо-восточный, В - восточный, ЮВ - юго-восточный, Ю - южный, ЮЗ - юго-западный, З - западный, СЗ - северо-западный.
Видимость - горизонтальная дальность видимости в метрах или километрах. При видимости от 1 до 10 км при отсутствии осадков обычно наблюдается дымка, при ухудшении видимости до 1 км и менее - туман. В сухую погоду видимость может ухудшаться дымом, пылью или мглою.
Явления - указаны атмосферные явления, наблюдавшиеся в срок или в последний час перед сроком; фигурными скобками обозначены явления, наблюдавшиеся между сроками (за 1-3 часа до срока); квадратными скобками обозначены град или гололедные отложения с указанием их диаметра в мм.
Облачность - указаны через наклонную черту общая и нижняя облачность в баллах и высота нижней границы облаков в метрах; квадратными скобками обозначены формы облаков: Ci - перистые, Cs - перисто-слоистые, Cc - перисто-кучевые, Ac - высококучевые, As - высокослоистые, Sc - слоисто-кучевые, Ns - слоисто-дождевые, Cu - кучевые, Cb - кучево-дождевые. Подробнее классификацию облаков см. в Атласе облаков (PDF).
T - Температура воздуха - температура, измеренная на высоте 2 м над землей.
Td - Температура точки росы - температура, при понижении до которой содержащийся в воздухе водяной пар достигнет насыщения.
f - Относительная влажность воздуха - влажноcть воздуха, измеренная на высоте 2 м над землей.
Te - Эффективная температура - температура, которую ощущает одетый по сезону человек в тени. Характеристика душности погоды. При расчете учитывается влияние влажности воздуха и скорости ветра на теплоощущения человека.
Tes - Эффективная температура на солнце - температура, которую ощущает человек, с поправкой на солнечный нагрев. Характеристика знойности погоды. Зависит от высоты солнца над горизонтом, облачности и скорости ветра. Ночью, в пасмурную погоду, а также при ветре 12 м/с и более поправка равна нулю.
P - Атмосферное давление - приведенное к уровню моря атмосферное давление.
Po - Атмосферное давление - измеренное на уровне метеостанции атмосферное давление.
Tmin - Минимальная температура - минимум температуры воздуха на высоте 2 м над землей.
Tmax - Максимальная температура - максимум температуры воздуха на высоте 2 м над землей.
R - Количество осадков - Количество выпавших осадков за период времени, мм. При наведении курсора мыши на число - период времени, за который выпало указанное количество осадков.
R24 - Количество осадков - Количество выпавших осадков за 24 часа, мм.
S - Снежный покров - Высота снежного покрова, см. При наведении курсора мыши на число - состояние снежного покрова и степень покрытия местности в баллах.